Wakefield, VA

9:05 PM EST on November 17, 2019 (GMT -0500)
Wakefield Municipal

Weather History for KAKQ - September, 2019

Change the Weather History Date:

Tuesday, September 17, 2019

  Actual Average (WUND) Record (WUND)
Temperature  
Mean Temperature 72 °F -  
Max Temperature 82 °F - - (-1)
Min Temperature 60 °F - - (-1)
Cooling Degree Days 7    
Growing Degree Days 22 (Base 50)    
Moisture  
Dew Point 65 °F    
Average Humidity 80    
Maximum Humidity 93    
Minimum Humidity 60    
Precipitation  
Precipitation 0.02 in - - ()
Sea Level Pressure  
Sea Level Pressure 30.02 in    
Wind  
Wind Speed 2 mph (ENE)    
Max Wind Speed 9 mph    
Max Gust Speed 20 mph    
Visibility 8 miles    
Events Rain    
Averages and records for this station are not official NWS values.
T = Trace of Precipitation, MM = Missing Value Source: NWS Daily Summary

Daily Weather History Graph

Daily Weather History Graph

Search for Another Location

Airport or City:

Astronomy

Sep. 17, 2019 Rise Set
Actual Time 6:51 AM EDT 7:12 PM EDT
Civil Twilight 6:25 AM EDT 7:38 PM EDT
Nautical Twilight 5:55 AM EDT 8:09 PM EDT
Astronomical Twilight 5:23 AM EDT 8:40 PM EDT
Moon 9:19 PM EDT (9/17) 9:50 AM EDT (9/17)
Length of Visible Light 13h 13m
Length of Day
12h 21m
Waning Gibbous, 89% of the Moon is Illuminated
Sep 17
Waning Gibbous
Sep 21
Last Quarter
Sep 28
New
Oct 5
First Quarter
Oct 13
Full

Hourly Weather History & Observations

Time (EDT) Temp. Heat Index Dew Point Humidity Pressure Visibility Wind Dir Wind Speed Gust Speed Precip Events Conditions
12:54 AM 68.0 °F - 66.0 °F 93% 29.98 in 7.0 mi Calm Calm - N/A   Clear
1:42 AM 66.9 °F - 64.9 °F 93% 29.98 in 1.5 mi Calm Calm - N/A   Clear
1:54 AM 66.9 °F - 64.9 °F 93% 29.98 in 2.0 mi Calm Calm - N/A   Scattered Clouds
2:01 AM 66.9 °F - 64.9 °F 93% 29.98 in 4.0 mi Calm Calm - N/A   Mostly Cloudy
2:54 AM 66.0 °F - 64.0 °F 93% 29.96 in 6.0 mi Calm Calm - N/A   Clear
3:54 AM 66.0 °F - 63.0 °F 90% 29.97 in 5.0 mi Calm Calm - N/A   Partly Cloudy
4:54 AM 66.9 °F - 64.9 °F 93% 29.96 in 5.0 mi Calm Calm - N/A   Mostly Cloudy
5:54 AM 66.0 °F - 64.0 °F 93% 29.97 in 1.5 mi Calm Calm - N/A   Clear
6:28 AM 66.0 °F - 64.0 °F 93% 29.98 in 4.0 mi Calm Calm - N/A   Clear
6:54 AM 66.9 °F - 64.9 °F 93% 29.99 in 7.0 mi Calm Calm - N/A   Clear
7:54 AM 70.0 °F - 68.0 °F 93% 30.01 in 7.0 mi Calm Calm - N/A   Mostly Cloudy
8:54 AM 73.9 °F - 70.0 °F 87% 30.02 in 10.0 mi Calm Calm - N/A   Partly Cloudy
9:33 AM 75.9 °F - 71.1 °F 85% 30.03 in 10.0 mi East 4.6 mph - N/A   Scattered Clouds
9:54 AM 77.0 °F - 70.0 °F 79% 30.03 in 10.0 mi Variable 4.6 mph - N/A   Scattered Clouds
10:25 AM 79.0 °F - 69.1 °F 72% 30.03 in 10.0 mi ENE 6.9 mph - N/A   Mostly Cloudy
10:52 AM 80.6 °F 82.7 °F 66.2 °F 61% 30.04 in 10.0 mi ENE 9.2 mph - N/A   Scattered Clouds
10:54 AM 80.1 °F 82.3 °F 66.9 °F 64% 30.04 in 10.0 mi ENE 8.1 mph - N/A   Scattered Clouds
11:54 AM 81.0 °F 83.0 °F 66.0 °F 60% 30.04 in 10.0 mi Variable 6.9 mph - N/A   Mostly Cloudy
12:54 PM 77.0 °F - 66.9 °F 71% 30.05 in 10.0 mi East 8.1 mph 19.6 mph N/A   Overcast
1:11 PM 75.0 °F - 69.1 °F 82% 30.04 in 9.0 mi Variable 3.5 mph - 0.02 in Rain Light Rain
1:54 PM 78.1 °F - 66.0 °F 66% 30.04 in 10.0 mi East 6.9 mph - 0.02 in   Mostly Cloudy
2:54 PM 78.1 °F - 64.9 °F 64% 30.04 in 10.0 mi ENE 6.9 mph - N/A   Overcast
3:54 PM 75.9 °F - 63.0 °F 64% 30.04 in 10.0 mi Variable 4.6 mph - N/A   Overcast
4:54 PM 75.9 °F - 63.0 °F 64% 30.04 in 6.0 mi ENE 6.9 mph - N/A   Haze
5:54 PM 75.0 °F - 64.0 °F 69% 30.05 in 10.0 mi Variable 4.6 mph - N/A   Overcast
6:54 PM 71.1 °F - 64.9 °F 81% 30.06 in 10.0 mi NE 3.5 mph - 0.00 in   Overcast
7:54 PM 71.1 °F - 63.0 °F 75% 30.07 in 10.0 mi Variable 3.5 mph - N/A   Mostly Cloudy
8:54 PM 69.1 °F - 61.0 °F 75% 30.08 in 10.0 mi Calm Calm - N/A   Mostly Cloudy
9:54 PM 66.9 °F - 59.0 °F 76% 30.09 in 10.0 mi Calm Calm - N/A   Clear
10:54 PM 63.0 °F - 57.9 °F 84% 30.09 in 10.0 mi Calm Calm - N/A   Clear
11:54 PM 60.1 °F - 57.9 °F 93% 30.09 in 10.0 mi Calm Calm - N/A   Clear